Location: Six Mile Lake
(44.9000°N, 79.7170°W)
Time: 16:22:10
(UTC-04:00)

LO-87 - Pass Details

Date: 04 July 2022
Orbit: 450 x 466 km, 97.4° (Epoch: 17 August)

Event Time Altitude Azimuth Distance (km) Brightness Sun altitude
Exits shadow 00:36:14 54° 70° (ENE) 570 ? -21.4°
Drops below altitude 10° 00:39:35 10° 357° (N) 1,627 ? -21.5°
Sets 00:41:41 0° 352° (N) 2,512 ? -21.6°
